Flag for Ukraine Weather past 2 weeks in Kyiv, Ukraine

Now
77 °F

Passing clouds.


Feels Like: 79 °F
Forecast: 62 / 87 °F
Wind: 3 mph from South

Location: Kyiv

Current Time: Jul 28, 2014 at 8:56:59 AM

Latest Report: Jul 28, 2014 at 8:30 AM


Visibility: N/A

Pressure: 30.12 "Hg

Humidity: 57%

Dew point: 61 °F

Location of KyivLocation

Historic Weather in Kyiv — Graph

°F

Kyiv temperature yesterday

Maximum temperature yesterday: 84 °F (at 3:00 PM)
Minimum temperature yesterday: 55 °F (at 5:00 AM)
Average temperature yesterday: 73 °F

Past Weeks' High & Low Weather Summary

 TemperatureHumidityPressure
High86 °F (Jul 17, 2:30 PM)100% (Jul 14, 6:00 AM)30.15 "Hg (Jul 14, 6:00 AM)
Low55 °F (Jul 27, 5:00 AM)32% (Jul 25, 2:30 PM)29.77 "Hg (Jul 13, 8:00 AM)
Average72 °F69%29.98 "Hg
* Reported Jul 13 8:00 AM — Jul 28 8:00 AM, Kyiv, Weather by CustomWeather, © 2014

Note: Actual official high and low records may vary slightly from our data, if they occured in-between our weather recording intervals... More about our weather records

Advertising

Kyiv weather history for previous 24 hours

 ConditionsComfort  
Time TempWeatherWind HumidityBarometerVisibility
8:00 AM
Jul 28
75 °FPassing clouds.3 mph61%30.12 "HgN/A
7:30 AM72 °FSunny.1 mph78%30.12 "Hg10 mi
7:00 AM70 °FSunny.3 mph78%30.12 "Hg10 mi
6:30 AM68 °FSunny.6 mph83%30.12 "Hg10 mi
5:30 AM64 °FClear.3 mph83%30.09 "Hg10 mi
5:00 AM64 °FClear.3 mph83%30.09 "Hg10 mi
4:30 AM64 °FClear.1 mph88%30.09 "Hg10 mi
4:00 AM64 °FClear.1 mph88%30.09 "Hg10 mi
3:30 AM66 °FClear.3 mph83%30.09 "Hg10 mi
3:00 AM66 °FClear.6 mph83%30.12 "Hg10 mi
2:30 AM68 °FClear.6 mph78%30.12 "Hg10 mi
2:00 AM68 °FClear.3 mph78%30.12 "Hg10 mi
1:30 AM68 °FClear.6 mph78%30.12 "Hg10 mi
1:00 AM72 °FClear.6 mph69%30.12 "Hg10 mi
12:30 AM73 °FClear.6 mph69%30.12 "Hg10 mi
12:00 AM73 °FClear.3 mph69%30.12 "Hg10 mi
11:30 PM
Jul 27
68 °FClear.3 mph83%30.12 "Hg10 mi
11:00 PM70 °FClear.No wind78%30.12 "Hg10 mi
10:30 PM70 °FClear.No wind78%30.12 "Hg10 mi
10:00 PM75 °FClear.1 mph61%30.09 "Hg10 mi
9:30 PM75 °FSunny.1 mph61%30.09 "Hg10 mi
9:00 PM75 °FSunny.1 mph61%30.09 "Hg10 mi
8:30 PM77 °FSunny.3 mph57%30.09 "Hg10 mi
8:00 PM79 °FSunny.3 mph58%30.09 "Hg10 mi
7:30 PM81 °FSunny.6 mph51%30.09 "Hg10 mi
7:00 PM82 °FPassing clouds.3 mph45%30.09 "HgN/A
6:30 PM84 °FPassing clouds.3 mph43%30.09 "HgN/A
6:00 PM84 °FPassing clouds.3 mph40%30.09 "HgN/A
5:30 PM84 °FPassing clouds.3 mph43%30.09 "HgN/A
5:00 PM84 °FPassing clouds.6 mph43%30.09 "HgN/A
4:30 PM84 °FPassing clouds.6 mph40%30.12 "HgN/A
4:00 PM84 °FPassing clouds.6 mph40%30.12 "HgN/A
3:30 PM82 °FSunny.6 mph45%30.12 "Hg10 mi
3:00 PM84 °FPassing clouds.6 mph43%30.12 "HgN/A
2:30 PM82 °FSunny.6 mph42%30.12 "Hg10 mi
2:00 PM82 °FPassing clouds.6 mph45%30.12 "HgN/A
1:30 PM82 °FPassing clouds.6 mph40%30.12 "HgN/A
1:00 PM82 °FSunny.6 mph40%30.15 "Hg10 mi
12:30 PM82 °FPassing clouds.8 mph42%30.15 "HgN/A
12:00 PM81 °FPassing clouds.6 mph42%30.15 "HgN/A
11:30 AM81 °FPassing clouds.6 mph51%30.15 "HgN/A
11:00 AM81 °FPassing clouds.6 mph48%30.15 "HgN/A
10:30 AM79 °FSunny.6 mph48%30.15 "Hg10 mi
10:00 AM77 °FSunny.6 mph54%30.15 "Hg10 mi
9:30 AM77 °FSunny.6 mph54%30.15 "Hg10 mi
9:00 AM75 °FPassing clouds.6 mph57%30.15 "HgN/A
8:30 AM73 °FPassing clouds.3 mph61%30.15 "HgN/A
8:00 AM72 °FSunny.3 mph65%30.15 "Hg10 mi
Weather by CustomWeather, © 2014

See weather overviewHow to use our weather pages